Location: Newark
(43.0000°N, 1.6781°W)
Time: 08:59:32
(UTC+00:00)

Transit 2A - All Passes

Search period start: 19 April 2021 00:00
Search period end: 29 April 2021 00:00
Orbit: 602 x 957 km, 66.7° (Epoch: 18 April)

Date Brightness Start Highest point End Pass type
(mag) Time Alt. Az. Time Alt. Az. Time Alt. Az.
19 Apr - 06:40:50 10° S 06:45:13 35° ESE 06:49:20 10° NE daylight
19 Apr - 08:24:16 10° WSW 08:28:22 29° NW 08:32:15 10° N daylight
19 Apr - 15:25:39 10° NNW 15:29:43 35° NE 15:34:00 10° ESE daylight
19 Apr - 17:08:57 10° NW 17:12:42 27° WSW 17:16:41 10° SSW daylight
20 Apr - 06:07:23 10° SSE 06:11:10 23° ESE 06:14:45 10° ENE daylight
20 Apr - 07:49:35 10° SW 07:54:05 41° NW 07:58:18 10° NNE daylight
20 Apr - 14:51:45 10° N 14:55:24 25° NE 14:59:13 10° ESE daylight
20 Apr - 16:34:26 10° NW 16:38:38 40° WSW 16:43:06 10° S daylight
21 Apr - 05:34:25 10° SE 05:37:08 15° ESE 05:39:46 10° ENE daylight
21 Apr - 07:15:07 10° SW 07:19:50 61° WNW 07:24:16 10° NNE daylight
21 Apr - 09:03:16 10° NW 09:03:50 10° NW 09:04:25 10° NNW daylight
21 Apr - 14:17:59 10° N 14:21:02 18° NE 14:24:11 10° E daylight
21 Apr - 16:00:06 10° NW 16:04:31 63° WSW 16:09:14 10° SSE daylight
22 Apr - 06:40:51 10° SSW 06:45:40 88° ESE 06:50:08 10° NNE daylight
22 Apr - 08:26:56 10° WNW 08:29:21 14° NW 08:31:44 10° N daylight
22 Apr - 13:44:28 10° NNE 13:46:36 13° NE 13:48:45 10° ENE daylight
22 Apr - 15:25:54 10° NNW 15:30:22 85° ENE 15:35:09 10° SSE daylight
22 Apr - 17:12:15 10° W 17:12:53 10° WSW 17:13:32 10° WSW daylight
23 Apr - 06:06:48 10° SSW 06:11:30 58° ESE 06:15:55 10° NE daylight
23 Apr - 07:51:37 10° W 07:54:56 19° NW 07:58:09 10° N daylight
23 Apr - 14:51:47 10° NNW 14:56:10 56° ENE 15:00:51 10° SE daylight
23 Apr - 16:36:04 10° WNW 16:38:54 16° WSW 16:41:52 10° SSW daylight
24 Apr - 05:32:59 10° S 05:37:24 37° ESE 05:41:33 10° NE daylight
24 Apr - 07:16:38 10° WSW 07:20:34 27° NW 07:24:21 10° N daylight
24 Apr - 14:17:45 10° NNW 14:21:55 38° NE 14:26:20 10° ESE daylight
24 Apr - 16:01:11 10° WNW 16:04:53 25° WSW 16:08:46 10° SSW daylight
25 Apr - 04:59:28 10° SSE 05:03:20 25° ESE 05:06:59 10° ENE daylight
25 Apr - 06:41:54 10° WSW 06:46:17 38° NW 06:50:26 10° NNE daylight
25 Apr - 13:43:50 10° N 13:47:37 27° NE 13:51:35 10° ESE daylight
25 Apr - 15:26:39 10° NW 15:30:48 37° WSW 15:35:15 10° S daylight
26 Apr - 04:26:24 10° SSE 04:29:18 16° ESE 04:32:06 10° ENE visible
26 Apr - 06:07:23 10° SW 06:12:02 56° NW 06:16:24 10° NNE daylight
26 Apr - 13:10:02 10° N 13:13:16 19° NE 13:16:37 10° E daylight
26 Apr - 14:52:17 10° NW 14:56:41 58° WSW 15:01:26 10° SSE daylight
27 Apr - 03:54:54 10° ESE 03:55:19 10° ESE 03:55:44 10° E visible
27 Apr - 05:33:05 10° SSW 05:37:50 85° WNW 05:42:17 10° NNE daylight
27 Apr - 07:19:27 10° WNW 07:21:36 13° NW 07:23:42 10° NNW daylight
27 Apr - 12:36:27 10° N 12:38:50 14° NE 12:41:18 10° ENE daylight
27 Apr - 14:18:03 10° NNW 14:22:32 88° WSW 14:27:23 10° SSE daylight
28 Apr - 04:59:00 10° SSW 05:03:41 63° ESE 05:08:05 10° NE daylight
28 Apr - 06:44:02 10° W 06:47:09 18° NW 06:50:12 10° N daylight
28 Apr - 12:03:42 10° NNE 12:04:21 10° NE 12:05:01 10° NE daylight
28 Apr - 13:43:55 10° NNW 13:48:21 61° ENE 13:53:07 10° SE daylight
28 Apr - 15:28:24 10° WNW 15:31:04 15° WSW 15:33:50 10° SW daylight
